Regional Weather Roundup
Issued by NWS

Home | Current Version | Previous Version | Text Only | Print | Product List | Glossary On
Versions: 1 2 3 4 5 6 7 8 9 10 11 12 13 14 15 16 17 18 19 20 21 22 23 24 25 26 27 28 29 30 31 32 33 34 35 36 37 38 39 40 41 42 43 44 45 46 47 48 49 50
000
ASUS43 KLMK 291310
RWRKY
KENTUCKY REGIONAL WEATHER ROUNDUP
NATIONAL WEATHER SERVICE LOUISVILLE KY
900 AM EDT SAT APR 29 2017

NOTE "FAIR" INDICATES FEW OR NO CLOUDS BELOW 12,000 FEET
WITH NO SIGNIFICANT WEATHER AND/OR OBSTRUCTIONS TO VISIBILITY.

KYZ001>023-026-027-061>063-070>075-291400-
WESTERN AND SOUTH CENTRAL KENTUCKY

CITY           SKY/WX    TMP DP  RH WIND       PRES   REMARKS
PADUCAH        CLOUDY    76  67  73 S6        29.93R
HENDERSON      NOT AVBL
OWENSBORO      CLOUDY    67  63  87 VRB6      30.02R
HOPKINSVILLE   CLOUDY    75  68  80 S7        29.97R
BOWLING GREEN  CLOUDY    77  70  79 S14       30.00R
GLASGOW        PTSUNNY   75  66  74 S12       30.02R
$$

KYZ024-025-028>034-038-045-046-053-291400-
NORTH CENTRAL KENTUCKY

CITY           SKY/WX    TMP DP  RH WIND       PRES   REMARKS
LOUISVILLE/SDF CLOUDY    69  64  84 NW10      30.03R
LOUISVILLE/LOU CLOUDY    68  65  90 NW7       30.03
FORT KNOX      CLOUDY    70  68  94 NW10      30.03R
$$

KYZ035>037-039>044-047>052-055>060-089>105-291400-
NORTHEAST KENTUCKY

CITY           SKY/WX    TMP DP  RH WIND       PRES   REMARKS
LEXINGTON      CLOUDY    69  62  78 S12       30.03R
COVINGTON      TSTM      63  63 100 SW6       30.08R VSB 1/2
FRANKFORT      CLOUDY    69  62  78 S8        30.01R
$$

KYZ054-064>069-076>088-106>120-291400-
SOUTHEAST KENTUCKY

CITY           SKY/WX    TMP DP  RH WIND       PRES   REMARKS
JACKSON        PTSUNNY   73  65  75 S3        30.10R
LONDON         CLOUDY    73  64  73 S3        30.09R
SOMERSET       CLOUDY    72  64  78 S3        30.09R
MIDDLESBORO    CLOUDY    73  65  75 E3        30.12S
MONTICELLO     MOSUNNY   74  68  81 VRB6      30.08R
$$





USA.gov is the U.S. government's official web portal to all federal, state and local government web resources and services.